Preview of NWS' New Version of Forecast
This preview is not operational and should not be used for support decisions.

Regional Weather Roundup (RWR)

Issued by Gray - Portland, ME (GYX)

                            
000
ASUS41 KGYX 241410
RWRGYX
WEATHER ROUNDUP FOR MAINE AND NEW HAMPSHIRE
NATIONAL WEATHER SERVICE GRAY ME
1000 AM EDT MON JUN 24 2019

MEZ002-005-006-010-012-015-018-020-021-024-026-027-029-241500-
MAINE
  
CITY           SKY/WX    TMP DP  RH WIND       PRES   REMARKS
PORTLAND       FAIR      75  43  31 N6        29.83S                  
SANFORD        FAIR      74  45  35 NE3       29.85S                  
BAR HARBOR     FAIR      65  45  48 N12       29.83S                  
WISCASSET      FAIR      72  43  35 CALM      29.84S                  
ROCKLAND       FAIR      67  43  41 E7        29.83S                  
FRYEBURG       FAIR      73  44  35 S3        29.85S                  
LEWISTONAUBURN FAIR      72  42  34 NW9       29.84S                  
AUGUSTA        FAIR      69  46  43 VRB3      29.85R                  
WATERVILLE     FAIR      68  42  38 NE9       29.82S                  
BANGOR         FAIR      65  44  46 N7        29.85R                  
GREENVILLE       N/A     59  40  49 N10       29.84S                  
MILLINOCKET    FAIR      65  37  35 NW7       29.85S                  
HOULTON        FAIR      62  39  42 N14       29.80F                  
PRESQUE ISLE   FAIR      60  39  45 N13G23    29.82F                  
FRENCHVILLE    FAIR      61  38  42 NW14G23   29.82S                  
CARIBOU        FAIR      62  39  42 NW10      29.80F                  
$$

NHZ002-005-008-009-011-012-014-241500-
NEW HAMPSHIRE
  
CITY           SKY/WX    TMP DP  RH WIND       PRES   REMARKS
PORTSMOUTH     MOSUNNY   74  48  38 NW5       29.83S                  
ROCHESTER      FAIR      75  49  39 N6        29.84S                  
NASHUA         FAIR      77  52  41 NW9       29.86S                  
MANCHESTER     PTSUNNY   77  50  38 NW7       29.84S                  
CONCORD        FAIR      75  52  44 NW6       29.86S                  
LACONIA        FAIR      73  48  41 W8        29.86S                  
PLYMOUTH       FAIR      72  44  37 W7        29.86F                  
BERLIN         FAIR      71  41  33 N8        29.86F                  
WHITEFIELD     FAIR      68  42  38 W7        29.88S                  
JAFFREY        FAIR      75  51  43 VRB6      29.89S                  
KEENE          FAIR      73  56  54 VRB5      29.88F                  
LEBANON        FAIR      73  52  47 NE3       29.87F                  
MT WASHINGTON  MOSUNNY   41  28  60 N31G52      N/A                   
$$

VTZ005-007-008-241500-
VERMONT
  
CITY           SKY/WX    TMP DP  RH WIND       PRES   REMARKS
ST JOHNSBURY     N/A     69  45  41 MISG      29.86F                  
MONTPELIER     FAIR      68  44  42 CALM      29.93S                  
BURLINGTON     FAIR      72  53  51 VRB3      29.88F                  
$$

MAZ007-012-024-CTZ003-RIZ002-NYZ038-NYZ072-241500-
SOUTHERN NEW ENGLAND AND NY
  
CITY           SKY/WX    TMP DP  RH WIND       PRES   REMARKS
BOSTON         FAIR      79  55  43 VRB3      29.85R                  
WORCESTER      FAIR      74  54  49 NW8       29.89S                  
NANTUCKET      FAIR      73  56  54 NW14      29.84S                  
PROVIDENCE     FAIR      79  53  40 W7        29.85F                  
HARTFORD       FAIR      78  54  43 CALM      29.87F                  
ALBANY         FAIR      74  50  42 CALM      29.89F                  
NEW YORK CITY  PTSUNNY   79  50  36 NW6       29.88F                  
$$

ANZ081-ANZ082-ANZ150-NHZ014-MEZ023>029-241500-
COASTAL MARINE OBSERVATIONS
  
STATION/POSITION TIME  TEMP    WIND        PRES    WAVE
                       AIR SEA DIR/SP/G            HT/PER
                 (UTC) (F)     (DEG/KT/KT) (MB)    (FT/S)
ISLE OF SHOALS   1300   66      10/  7/  9 1009.9R
JEFFREYS LEDGE   1338      59                N/A     1/ 8
$$

.............KEY..............
   WCI - WIND CHILL
   TC  - TEMPERATURE IN CELSIUS
   VSB - VISIBILITY IN MILES
   HX  - HEAT INDEX
   FAIR- INDICATES FEW OR NO CLOUDS BELOW 12,000 FT, WITH NO 
         SIGNIFICANT WEATHER AND/OR OBSTRUCTIONS TO VISIBILITY.